Overview Statistics Trail Chart Weather Telemetry Raw packets
 

This is the latest recevied weather packets stored in our database for station/object JH7UAX-10. If no packets are shown the sender has not sent any weather packets the latest 10 day(s).

<< 1 2 3 4 5 >>
Time Temp. Humidity Pressure Rain* Wind** Luminosity Snow
1788556454 15.56° C 96% 1027.3 hPa 0 mm - - -
1788555555 15.56° C 96% 1027.2 hPa 0 mm - - -
1788554655 15° C 96% 1027.1 hPa 0 mm - - -
1788553755 15° C 96% 1027 hPa 0 mm - - -
1788552855 15° C 96% 1027.1 hPa 0 mm - - -
1788551954 15° C 95% 1026.9 hPa 0 mm - - -
1788551055 15° C 95% 1026.8 hPa 0 mm - - -
1788550154 15.56° C 95% 1026.6 hPa 0 mm - - -
1788549254 15.56° C 95% 1026.6 hPa 0 mm - - -
1788548354 15.56° C 95% 1026.4 hPa 0 mm - - -
1788547455 15.56° C 95% 1026.3 hPa 0 mm - - -
1788545655 15.56° C 95% 1026.3 hPa 0 mm - - -
1788544754 15.56° C 95% 1026.3 hPa 0 mm - - -
1788543854 16.11° C 95% 1026.3 hPa 0 mm - - -
1788542955 15.56° C 95% 1026.4 hPa 0 mm - - -
1788541155 15.56° C 94% 1026.4 hPa 0 mm - - -
1788540255 16.11° C 95% 1026.4 hPa 0 mm - - -
1788539356 15.56° C 95% 1026.2 hPa 0 mm - - -
1788538454 15.56° C 95% 1026.1 hPa 0 mm - - -
1788537555 15.56° C 94% 1026.4 hPa 0 mm - - -
1788535754 16.11° C 93% 1026.4 hPa 0 mm - - -
1788534854 16.11° C 93% 1026.2 hPa 0 mm - - -
1788533054 16.67° C 93% 1026.4 hPa 0 mm - - -
1788532175 16.67° C 93% 1026.4 hPa 0 mm - - -
1788530355 16.67° C 93% 1026.4 hPa 0 mm - - -

* Rain latest hour (hover to see other rain measurements)
** Current wind speed in m/s (hover to see current wind gust speed)